Location: Newark
(34.9471°N, 136.1778°E)
Time: 00:31:59
(UTC+00:00)

XW-2C - Pass Details

Date: 27 February 2020
Orbit: 509 x 527 km, 97.5° (Epoch: 08 April)

Event Time Altitude Azimuth Distance (km) Brightness Sun altitude
Rises 19:52:05 0° 34° (NNE) 2,644 ? -20.3°
Reaches altitude 10° 19:54:58 10° 58° (ENE) 1,755 ? -19.7°
Maximum altitude 19:57:11 15° 94° (E) 1,466 ? -19.2°
Drops below altitude 10° 19:59:24 10° 130° (SE) 1,753 ? -18.8°
Sets 20:02:15 0° 154° (SSE) 2,639 ? -18.2°
